Regional Weather Roundup
Issued by NWS Little Rock, AR

Home | Current Version | Previous Version | Text Only | Print | Product List | Glossary On
Versions: 1 2 3 4 5 6 7 8 9 10 11 12 13 14 15 16 17 18 19 20 21 22 23 24 25 26 27 28 29 30 31 32 33 34 35 36 37 38 39 40 41 42 43 44 45 46 47 48 49 50
000
ASUS44 KLZK 260905
RWRLZK

WEATHER ROUNDUP FOR ARKANSAS
NATIONAL WEATHER SERVICE LITTLE ROCK AR
400 AM CDT WED APR 26 2017

NOTE: "FAIR" INDICATES FEW OR NO CLOUDS BELOW 12,000 FEET WITH NO
SIGNIFICANT WEATHER AND/OR OBSTRUCTIONS TO VISIBILITY.

ARZ001-003-010-029-261000-
NORTHWEST ARKANSAS

CITY           SKY/WX    TMP DP  RH WIND       PRES   REMARKS
FAYETTEVILLE   LGT RAIN  59  59 100 CALM      29.48F
FORT SMITH     LGT RAIN  65  62  90 SE9       29.47F
HARRISON       LGT RAIN  58  57  97 E6        29.55F
BENTONVILLE    CLOUDY    57  55  94 SE7       29.52R THUNDER
SILOAM SPGS    CLOUDY    57  54  88 E3        29.48F
HIGHFILL       CLOUDY    59  57  93 SE7       29.51R THUNDER
$$

ARZ004-005-016-261000-
NORTH CENTRAL ARKANSAS

CITY           SKY/WX    TMP DP  RH WIND       PRES   REMARKS
BATESVILLE     CLOUDY   N/A N/A N/A W3        29.58R
FLIPPIN        CLOUDY   N/A N/A N/A NE5       29.55F
MTN HOME       LGT RAIN  60  58  92 S6        29.59F
$$

ARZ040-041-261000-
WEST CENTRAL ARKANSAS

CITY           SKY/WX    TMP DP  RH WIND       PRES   REMARKS
MENA           CLOUDY    72  72 100 SE3       29.53S
MOUNT IDA      CLOUDY    74  63  68 VRB5      29.50S
$$

ARZ009-017-025-026-028-261000-
NORTHEAST ARKANSAS

CITY           SKY/WX    TMP DP  RH WIND       PRES   REMARKS
CORNING        CLOUDY    68  63  83 SW10      29.60R
JONESBORO      MOCLDY    70  60  70 S14G23    29.57R
NEWPORT        CLOUDY    70  62  76 S10       29.57
WALNUT RIDGE   MOCLDY    66  57  72 SW8       29.59R
BLYTHEVILLE    CLOUDY    64  58  80 S6        29.61R
$$

ARZ022-023-033-042-044-261000-
CENTRAL ARKANSAS

CITY           SKY/WX    TMP DP  RH WIND       PRES   REMARKS
LITTLE ROCK    CLOUDY    71  64  78 S7        29.55S
N LITTLE ROCK    N/A     71  64  78 S8G16     29.55R
JACKSONVILLE   CLOUDY    73  64  75 S8        29.55R
CONWAY           N/A     72  64  78 S6        29.54R
SEARCY         CLOUDY    71  64  78 S7        29.58R
HOT SPRINGS    CLOUDY    73  65  75 S7        29.54S
RUSSELLVILLE   CLOUDY    71  64  78 CALM      29.54R
$$

ARZ036-261000-
EAST ARKANSAS

CITY           SKY/WX    TMP DP  RH WIND       PRES   REMARKS
WEST MEMPHIS   MOCLDY    65  58  78 S15       29.59S
$$

ARZ050-053-066-070-073-261000-
SOUTHWEST ARKANSAS

CITY           SKY/WX    TMP DP  RH WIND       PRES   REMARKS
ARKADELPHIA      N/A     71  66  84 S3        29.55R
CAMDEN         CLOUDY    72  63  73 S6        29.53S
TEXARKANA      CLOUDY    71  67  87 S8        29.50S
EL DORADO      CLOUDY    71  65  81 S12       29.53F
$$

ARZ056-057-069-261000-
SOUTHEAST ARKANSAS

CITY           SKY/WX    TMP DP  RH WIND       PRES   REMARKS
PINE BLUFF     CLOUDY    70  62  76 SE10      29.57F
STUTTGART      CLOUDY    70  55  60 SE10      29.59R
MONTICELLO     CLOUDY    71  62  73 SE8       29.58S

$$





USA.gov is the U.S. government's official web portal to all federal, state and local government web resources and services.